Theta_e
318 318 319 320 319 322 323 323 324 327 329 328 330 330 329 330 334 338 340 343 344 346 348 345 346 351 353 351 351 347 343 341 339 339 344 349 349 347 347 348 345 344 341
314 314 314 316 315 317 319 320 324 324 326 328 330 331 329 329 331 329 329 334 336 337 340 343 343 344 347 348 347 344 346 350 341 339 344 342 345 346 346 347 344 343 341
312 312 314 313 314 314 314 316 317 319 322 323 327 328 328 328 327 328 328 327 329 332 335 339 340 342 338 341 344 344 345 346 344 339 337 339 340 341 341 344 344 345 341
310 311 314 313 314 315 316 317 317 317 317 319 320 322 328 328 327 326 327 328 328 328 331 335 337 337 337 341 341 340 343 342 341 340 337 336 337 340 338 337 336 339 338
310 310 312 314 314 315 315 316 317 317 316 317 317 319 321 324 322 323 326 328 328 327 327 328 331 330 327 326 334 338 339 339 338 336 336 335 333 334 333 335 334 335 338
311 310 311 312 313 313 315 315 316 316 316 317 317 317 318 318 305 304 310 323 327 327 326 326 326 328 328 322 320 318 322 330 331 335 335 331 335 336 337 337 334 330 327
311 311 310 311 311 312 313 314 315 315 317 316 317 318 318 319 305 302 303 318 322 325 327 327 325 321 324 327 320 318 318 314 317 333 330 330 333 334 334 335 332 334 332
311 311 311 310 310 311 312 313 315 315 315 316 316 317 318 318 307 303 302 318 320 322 324 325 326 326 326 325 324 324 325 326 330 332 334 334 335 336 336 334 333 332 334
310 310 310 311 311 311 311 313 314 314 315 315 316 316 317 318 305 302 305 317 317 318 319 321 322 323 309 304 323 322 322 323 317 314 312 307 303 303 311 328 327 324 322
310 310 311 311 311 311 312 313 314 315 315 314 315 317 313 317 306 303 306 313 315 314 318 319 310 313 303 305 318 321 321 322 322 323 325 319 314 321 306 326 325 320 320
311 311 311 311 312 312 312 312 314 315 315 315 315 316 317 315 315 302 300 312 312 312 312 313 316 302 300 298 298 316 317 311 319 322 322 321 321 322 322 325 329 325 321
311 310 310 310 309 309 312 313 314 314 313 313 312 312 314 316 308 305 301 298 304 312 313 314 315 298 297 297 299 302 299 301 316 318 318 317 317 318 320 323 327 328 329
309 310 311 311 310 311 311 311 311 311 309 308 307 307 309 312 313 303 302 298 299 309 314 308 299 299 298 301 297 297 297 311 315 315 316 317 318 320 325 325 327 328 328
307 307 310 310 309 311 310 309 308 309 307 305 306 306 308 310 311 312 311 312 305 308 307 310 309 303 300 304 306 309 312 317 316 316 317 318 319 319 319 320 319 320 319
306 307 308 307 308 307 308 308 307 309 305 305 305 305 305 306 307 299 300 306 307 305 300 308 311 312 312 313 313 315 316 316 315 316 316 315 315 315 315 317 317 318 316
305 303 305 303 305 305 306 306 298 297 296 294 294 296 303 299 296 295 294 294 293 293 299 304 308 310 310 311 311 310 312 312 315 315 313 310 309 309 310 312 313 313 313
304 305 305 302 303 304 303 301 299 302 296 295 294 293 293 293 292 292 292 291 291 291 297 306 308 308 308 310 310 309 310 312 316 315 313 312 310 309 307 308 309 310 310
303 299 302 301 301 301 301 300 300 299 301 303 300 298 297 294 293 292 291 291 301 298 304 307 307 308 308 309 308 309 311 312 313 314 313 313 308 308 308 310 310 310 310
301 301 301 299 302 300 301 302 303 300 300 300 302 300 298 295 295 294 292 299 301 304 306 306 305 305 307 308 311 311 313 313 310 311 309 309 310 308 308 310 311 297 301
299 296 296 301 301 300 300 299 300 300 299 300 300 299 299 297 301 300 300 299 299 300 301 301 302 302 304 304 306 306 305 306 304 307 306 307 308 310 309 310 309 308 309
298 299 291 300 299 300 299 298 298 298 297 297 297 295 287 297 295 296 296 297 297 297 298 298 299 299 300 300 300 301 302 304 305 306 306 306 306 305 307 308 307 308 309
299 298 298 297 298 297 296 297 297 296 295 294 294 294 289 299 299 298 298 298 301 299 298 297 297 297 297 299 300 301 302 302 303 304 303 303 302 301 301 301 304 307 308
299 300 300 299 297 293 295 297 298 297 296 295 293 292 293 298 298 299 300 300 301 299 298 298 296 296 298 298 298 298 297 297 299 300 299 298 297 298 300 300 301 303 307
301 299 298 300 301 300 297 298 299 293 295 296 295 296 296 297 297 297 298 298 298 298 300 301 301 296 295 299 302 303 302 300 297 297 297 297 297 297 298 298 299 300 302
300 299 299 299 299 298 297 296 297 296 296 297 295 294 295 296 295 297 293 292 294 297 299 302 303 301 301 300 301 301 294 286 291 289 294 296 297 298 298 298 299 300 301
300 300 299 298 298 298 298 298 297 297 297 295 294 293 295 294 294 293 297 298 298 299 302 302 301 301 301 300 299 290 287 286 290 287 295 299 299 298 299 299 299 299 299
Wind_Speed
12 12 10 10 10 8 9 8 9 7 4 1 2 2 2 3 4 4 5 6 7 8 8 8 10 11 8 9 7 7 7 8 9 10 5 5 7 9 11 10 8 10 7
7 6 8 9 9 10 8 8 9 9 10 7 4 3 3 2 2 4 5 6 7 7 7 9 10 7 10 10 8 10 10 9 9 12 10 8 7 8 11 11 8 9 8
3 2 5 5 6 2 3 5 9 8 8 9 8 5 5 2 4 4 4 5 5 7 6 10 9 7 7 6 8 8 7 7 7 8 10 9 7 7 9 9 8 9 8
7 7 9 8 6 5 5 6 5 5 7 8 8 9 6 4 4 5 5 5 5 4 5 7 8 9 8 10 8 9 9 8 7 8 9 10 9 6 6 8 6 7 9
5 6 5 6 4 7 7 7 7 6 6 7 8 7 7 6 4 7 7 7 6 6 5 6 5 5 6 7 6 8 9 9 8 8 8 9 10 7 7 7 6 7 8
5 7 6 6 7 7 7 7 8 8 7 8 8 7 8 7 10 4 7 8 8 7 6 7 8 8 5 7 5 6 6 6 7 8 7 6 11 9 7 7 8 7 9
7 8 8 10 10 10 9 9 8 8 9 9 8 9 8 8 6 3 6 8 9 9 9 8 9 5 5 7 6 8 9 8 9 9 7 7 9 7 6 8 8 10 9
7 8 9 9 10 10 10 10 9 9 10 9 8 8 8 6 5 3 7 10 10 10 10 10 10 11 9 7 10 10 10 8 9 8 8 7 7 6 6 6 6 7 8
9 9 10 11 11 11 11 11 11 10 9 9 9 9 8 8 2 2 7 9 8 9 10 12 11 11 2 1 9 12 11 10 5 5 4 7 7 8 7 6 8 7 9
10 10 11 11 12 12 13 13 10 10 10 9 9 9 8 9 3 5 4 8 8 8 8 9 9 10 5 3 8 12 12 12 10 7 7 9 11 11 13 11 9 12 11
11 11 12 12 12 12 9 10 11 10 10 10 10 9 10 9 7 6 3 8 8 8 9 8 6 8 5 3 6 11 11 10 10 10 10 9 8 9 8 10 10 9 9
13 12 12 12 9 8 7 9 9 8 9 9 9 9 8 6 6 5 4 6 8 9 9 8 8 7 6 8 8 11 7 9 9 10 10 10 10 9 8 7 8 9 10
13 13 12 12 8 6 6 8 8 7 6 7 7 9 9 8 7 11 10 9 10 7 8 9 11 11 12 11 16 14 10 8 8 9 9 10 9 9 9 9 11 13 13
15 13 12 12 8 9 8 8 7 8 7 9 9 10 11 10 9 8 7 3 7 9 3 7 9 12 14 11 7 10 10 9 8 9 10 10 7 7 9 8 10 10 11
13 11 10 10 10 11 11 9 9 10 8 10 11 11 11 12 10 8 5 10 11 9 10 10 10 9 9 8 8 9 8 9 9 9 9 9 8 8 9 9 10 10 11
10 9 7 9 11 11 10 10 6 3 7 8 12 11 12 13 16 13 11 10 10 8 7 9 10 10 11 10 10 8 8 11 11 10 7 6 8 9 9 8 9 9 10
10 10 9 9 9 10 10 9 9 9 10 13 16 16 14 15 15 15 11 11 12 6 8 10 11 10 11 11 10 9 12 10 9 7 8 8 7 7 8 9 9 9 9
11 9 8 7 7 8 8 8 7 8 9 9 7 8 10 12 12 12 12 7 9 10 11 9 8 10 11 7 9 10 10 10 10 10 9 7 5 7 9 10 10 10 8
8 7 7 7 6 7 7 7 6 5 7 7 6 5 9 11 12 11 7 6 7 9 8 7 6 7 8 9 10 9 11 11 7 9 6 8 8 6 9 11 11 9 9
7 8 7 7 6 5 5 6 6 5 5 5 5 6 6 6 6 7 6 6 6 5 5 5 4 5 6 6 6 6 6 6 4 6 5 6 8 9 10 12 10 9 11
5 5 6 5 6 7 6 5 6 6 6 6 6 7 7 6 6 6 6 6 5 5 5 6 6 5 5 5 5 5 5 5 5 7 7 8 7 8 9 10 11 11 10
5 4 5 6 6 6 6 5 6 6 6 7 7 7 10 3 4 4 4 5 6 3 4 5 5 5 6 6 6 6 7 7 8 8 8 8 8 8 8 9 10 11 12
2 4 6 6 4 4 4 6 6 6 5 4 4 6 7 7 7 8 7 5 4 3 4 4 5 6 6 6 6 6 6 6 7 7 8 8 8 8 8 9 10 11 12
5 5 2 1 4 3 2 5 5 6 7 8 8 8 7 8 7 8 10 10 10 9 9 8 3 2 5 6 5 6 4 7 8 9 11 7 7 8 8 9 9 12 10
6 5 6 8 8 7 5 6 7 6 6 8 8 8 8 8 10 11 9 7 6 7 8 7 7 10 14 12 12 15 11 9 9 9 7 8 9 11 10 7 8 8 9
6 7 7 6 6 7 7 7 8 8 9 8 8 8 8 9 8 8 8 9 8 7 9 8 10 15 17 13 15 12 9 10 10 10 7 7 6 5 5 4 5 3 4
Wind_Direction
26 24 31 44 39 26 44 14 4 347 339 349 326 345 360 7 346 311 287 264 267 263 249 243 265 275 256 244 246 258 246 240 252 268 256 173 231 272 279 268 249 253 216
27 30 34 29 25 12 24 7 3 348 343 347 320 300 282 323 335 315 299 316 293 273 286 274 268 275 274 257 244 242 240 235 236 248 272 285 273 286 283 271 263 253 250
348 52 32 29 20 330 320 3 340 342 338 351 345 320 304 327 289 296 300 306 305 299 302 302 296 274 267 275 263 263 255 251 238 248 259 266 259 258 271 248 253 247 252
359 6 22 25 26 330 357 338 320 323 319 342 339 328 308 313 300 319 318 306 303 315 307 307 303 292 288 285 254 252 252 247 239 240 257 269 267 269 263 269 249 223 240
359 1 359 357 343 338 347 343 345 332 320 311 301 296 310 297 48 344 332 308 302 305 307 297 286 337 307 300 299 290 277 258 254 249 252 267 275 273 259 275 269 262 207
335 351 358 350 338 334 322 333 316 318 320 320 317 313 297 292 96 44 333 314 303 301 303 304 305 232 211 222 245 253 269 284 271 261 276 270 273 297 305 297 282 253 242
334 334 344 334 339 336 327 321 312 313 307 308 310 305 304 298 88 30 333 302 302 297 294 297 294 311 289 317 213 224 238 230 246 280 266 271 282 297 314 296 301 298 267
308 320 335 335 332 321 312 309 314 305 296 294 291 293 297 292 89 2 315 287 279 283 286 289 288 287 292 298 304 295 281 260 229 225 230 259 260 281 275 299 308 282 297
309 326 334 328 319 315 312 318 311 299 295 289 293 293 294 301 91 157 290 298 279 285 283 282 283 294 28 54 295 287 281 276 175 171 250 299 293 285 279 296 267 271 272
321 329 311 309 304 312 313 308 303 297 289 291 298 297 295 287 274 158 259 292 299 294 288 279 253 267 56 3 300 290 282 279 283 265 233 230 232 247 216 236 257 266 266
316 302 301 295 296 294 303 294 294 289 291 288 294 296 291 285 296 124 197 301 302 304 303 293 292 82 52 320 283 278 281 337 299 280 259 253 248 245 253 226 236 259 263
313 307 302 300 299 308 296 288 296 290 286 284 280 275 276 272 226 216 195 243 316 289 291 292 296 47 337 291 251 261 280 296 266 264 269 264 260 259 256 238 266 273 256
308 305 305 308 315 318 308 305 297 292 282 294 296 293 296 295 300 178 212 190 199 256 283 328 314 287 273 271 235 250 245 241 250 257 264 268 274 292 322 287 258 250 252
302 304 311 314 332 306 317 308 301 292 304 304 302 298 304 297 297 292 294 237 229 248 235 277 286 293 282 277 279 225 233 246 242 245 249 260 287 287 269 272 273 279 277
296 308 301 299 309 310 300 306 301 309 354 320 304 303 303 299 303 5 325 307 303 321 326 286 279 277 280 258 229 254 256 262 255 261 267 272 281 275 277 288 286 285 275
312 299 328 307 294 305 308 315 90 5 300 275 268 269 295 293 302 297 293 286 274 275 266 269 279 285 287 292 289 273 265 254 258 258 233 245 265 272 274 279 277 279 280
313 305 302 302 321 334 325 310 303 306 253 247 259 257 242 264 280 279 268 253 250 220 235 266 272 268 243 241 253 273 287 283 270 245 239 249 256 256 260 266 268 269 274
324 332 321 329 318 314 311 311 300 298 310 316 331 322 303 293 281 271 269 253 266 203 240 254 271 287 284 275 264 261 266 256 271 277 260 255 245 248 255 253 254 270 265
319 314 331 301 298 307 305 295 300 296 299 299 309 334 356 339 301 292 270 249 290 312 324 325 309 281 286 283 281 286 280 278 286 291 278 252 243 248 259 266 278 279 273
323 308 297 307 319 308 345 342 352 352 348 344 352 356 341 334 3 14 16 11 5 354 346 337 342 344 348 338 328 322 322 301 305 296 288 285 287 280 277 276 276 271 269
316 330 315 342 352 354 1 359 358 2 1 2 3 17 354 28 19 8 358 352 349 351 346 341 338 332 328 326 321 308 300 300 302 287 288 282 280 273 265 265 264 266 267
338 345 360 10 12 25 9 3 21 25 23 18 7 2 340 340 14 357 335 329 331 17 342 334 332 331 328 316 311 308 311 306 306 310 305 294 286 279 275 275 277 272 270
308 25 27 40 31 17 16 335 30 24 26 41 24 360 350 353 350 7 354 338 312 344 323 339 339 331 328 333 329 317 305 295 291 283 274 268 265 262 267 270 271 268 268
14 35 26 300 69 84 36 9 6 12 11 0 26 5 350 360 355 357 9 359 358 355 359 351 338 296 312 311 303 304 304 315 305 288 282 264 261 260 259 258 259 262 268
10 2 10 19 9 14 37 38 31 2 0 30 23 8 5 2 17 15 3 342 333 348 353 343 357 355 358 1 2 349 350 310 306 296 279 262 258 260 264 257 258 264 263
20 11 30 15 11 12 22 17 20 18 25 33 29 18 18 21 13 359 358 10 5 0 351 15 2 6 13 2 3 340 326 324 331 323 321 324 316 307 289 285 284 279 282